www.pogodaiklimat.ru

Погода и климат >> Архив погоды >> Россия >> Пермский край >> Кунгур


ПОГОДА в Кунгуре

  • Прогноз погоды в Кунгуре
  • Монитор погоды в Кунгуре

АРХИВ ПОГОДЫ в Кунгуре

Время (UTC), дата Ветер
(напр.,м/с)
 
Видим.   Явления Облачность Т
(С)
Тd
(С)
f
(%)
Тe
(С)
Тes
(С)
Комфортность P
(гПа)
Po
(гПа)
Тmin
(С)
Tmax
(С)
R
(мм)
R24
(мм)
S
(см)
15 12.06 З 6-10
{12}
50 км 8/8 600 м
[Sc]
+16.1 +8.7 61 +15 +15 1006.4 988.8 +21.3 2
18 12.06 С 3
{10}
50 км 8/8 600 м
[Sc]
+11.0 +0.8 49 +10 +10 1009.6 991.7
21 12.06 СЗ 3
{10}
50 км 8/8 600 м
[Sc]
+7.3 +0.5 62 +5 +5 1012.1 993.8
00 13.06 С 1 50 км 9/9 600 м
[Sc]
+6.5 +0.8 67 +6 +6 1014.4 996.0
03 13.06 СЗ 3 50 км 9/9 600 м
[]
+7.0 +2.2 71 +4 +5 1014.4 996.1 +5.8
06 13.06 СЗ 3
{10}
50 км 8/8 600 м
[Sc]
+9.4 +0.3 53 +7 +11 1015.5 997.3
09 13.06 СЗ 4
{10}
50 км 9/9 600 м
[Sc]
+10.3 -0.6 47 +8 +9 1015.0 996.9
12 13.06 СЗ 3
{10}
50 км 8/8 600 м
[Sc]
+11.4 +0.4 47 +10 +11 1015.3 997.3
15 13.06 СЗ 2
{10}
50 км 6/4 600 м
[Sc Ac trans]
+11.2 +1.8 52 +10 +11 1015.8 997.7 +12.4
18 13.06 СЗ 2 50 км 8/4 600 м
[Sc Ac trans]
+7.8 +1.0 62 +6 +6 1013.0 994.7
21 13.06 Ю 1 50 км 8/5 600 м
[Sc Ac trans]
+2.7 +1.0 89 +1 +1 1016.8 998.2
00 14.06 Ю 1 50 км 4/3 600 м
[Sc Ac trans]
+1.1 -0.1 92 -1 -1 1017.5 998.7
03 14.06 З 4 50 км 6/0 2000 м
[Ac trans Ci fib]
+10.1 +2.7 60 +8 +10 1014.8 996.8 +1.1
06 14.06 СЗ 5 50 км 6/0 2000 м
[Ac trans Ci fib]
+14.2 +1.5 42 +13 +15 1015.2 997.3
09 14.06 З 4
{12}
50 км 8/5 600 м
[Sc Ac trans Ci fib]
+15.8 +1.4 38 +15 +19 1011.6 993.8
12 14.06 З 3
{11}
50 км 8/8 600 м
[Sc]
+14.9 +1.3 40 +14 +16 1010.5 992.7
15 14.06 СЗ 5-11
{12}
50 км слаб. ливневой дождь 9/9 600 м
[Cb calv]
+10.4 +5.8 73 +8 +8 1011.0 993.0 +16.8 0.3
18 14.06 З 1
{10}
50 км {ливн. осадки} 9/9 600 м
[Cb calv]
+9.2 +6.4 83 +9 +9 1010.5 992.4
21 14.06 ЮЗ 1 50 км 8/8 600 м
[Sc]
+7.5 +5.6 88 +7 +7 1010.3 992.1
00 15.06 ЮЗ 1 50 км 5/5 600 м
[Sc]
+4.9 +3.6 91 +4 +4 1011.7 993.3
03 15.06 З 1 50 км 3/0
[Ci fib]
+9.4 +5.6 77 +9 +14 1010.6 992.5 +4.5 0.3
06 15.06 С 1 50 км 6 баллов +14.9 +2.8 44 +16 +22 1011.1 993.3
09 15.06 З 2 50 км 6/6 600 м
[Sc]
+17.1 -0.3 31 +18 +24 1009.2 991.6
12 15.06 З 3 50 км 7 баллов +16.5 -0.7 31 +16 +18 1009.7 992.0
15 15.06 З 3 50 км 9/8 600 м
[Sc Ac trans]
+16.4 +0.3 33 +16 +16 1007.8 990.1 +18.3
18 15.06 ЮЗ 2 50 км 6 баллов +11.3 +2.6 55 +10 +10 1008.6 990.7
21 15.06 З 1 50 км 8/8 600 м
[Sc]
+10.4 +3.9 64 +10 +10 1006.4 988.5
00 16.06 ЮЗ 2 50 км {ливн. осадки} 9/9 600 м
[Cb calv]
+8.9 +6.3 84 +7 +7 1005.4 987.4
03 16.06 З 2 50 км в посл. час ливневой дождь 9/9 600 м
[Cb calv]
+9.7 +7.7 87 +8 +8 1005.0 987.0 +8.7 2
06 16.06 З 3 50 км в посл. час ливневой дождь 9 баллов +10.9 +7.4 79 +9 +10 1007.2 989.3
09 16.06 СЗ 2 50 км 8/8 600 м
[Sc]
+14.8 +5.4 53 +15 +18 1011.4 993.7
12 16.06 СЗ 5 50 км 7 баллов +14.5 +0.3 38 +13 +14 1007.0 989.3
15 16.06 СЗ 3 50 км 8/8 600 м
[Sc]
+12.1 +4.3 59 +11 +11 1007.2 989.3 +15.8
18 16.06 СЗ 1 50 км 7 баллов +8.7 +4.5 75 +8 +8 1008.8 990.7
21 16.06 штиль 0 50 км 3/0
[Ci fib]
+2.4 +3 +3 1008.9 990.5
00 17.06 ЮВ 1 50 км 6 баллов +0.6 -0.3 94 -1 -1 1010.7 992.0
03 17.06 З 1 50 км 8/0 2000 м
[Ac trans Ci fib]
+9.7 +4.9 72 +9 +13 1008.8 990.7 +0.1
06 17.06 З 3 50 км 7 баллов +14.1 +3.5 49 +13 +16 1008.5 990.7
09 17.06 ЮЗ 4 50 км 9/9 600 м
[Sc]
+14.6 +4.2 50 +14 +15 1005.7 988.0
12 17.06 ЮВ 1
{12}
10 км слаб. ливневой дождь 9/9 600 м
[Cb calv]
+10.8 +8.7 87 +10 +11 1004.8 987.0
15 17.06 СЗ 2 50 км в посл. час ливневой дождь 8/4 600 м
[Sc Ac trans]
+12.4 +9.8 84 +11 +12 1004.2 986.4 +14.6 4
18 17.06 СЗ 2 50 км 2 балла +9.0 +6.3 83 +7 +7 1008.8 990.7
21 17.06 З 1 50 км 4/3 600 м
[Sc Ac trans]
+4.6 +3.5 93 +3 +3 1007.7 989.4
00 18.06 З 1 50 км 2 балла +3.7 +2.7 93 +2 +2 1010.5 992.0
03 18.06 СЗ 1 50 км 3/0
[Ci fib]
+10.2 +5.4 72 +10 +15 1009.9 992.0 +3.4
06 18.06 СЗ 3 50 км 5 баллов +13.6 +3.4 50 +13 +18 1011.1 993.3
09 18.06 З 3
{10}
50 км 5/5 600 м
[Cu med, cong]
+17.0 +3.0 39 +17 +23 1010.1 992.5
12 18.06 З 4 50 км 7 баллов +18.0 +3.1 37 +18 +19 1010.9 993.3
15 18.06 З 2 50 км 6/3 600 м
[Sc Ac trans]
+18.4 +3.5 37 +19 +20 1009.1 991.5 +19.2
18 18.06 штиль 0 50 км 4 балла +10.4 +5.6 72 +10 +10 1011.3 993.3
21 18.06 ЮВ 2 50 км 8/0 2000 м
[Ac trans]
+6.7 +4.3 85 +4 +4 1010.2 992.0
00 19.06 ЮВ 2 50 км 6 баллов +6.1 +4.1 87 +4 +4 1011.6 993.3
03 19.06 Ю 1 50 км 8/0 2000 м
[Ac trans Ci fib]
+14.2 +7.0 62 +15 +18 1009.8 992.1 +6.0
06 19.06 ЮЗ 3 50 км 7 баллов +20.7 +8.7 46 +22 +26 комфорт 1009.4 992.0
09 19.06 ЮЗ 3 50 км 9/8 600 м
[Sc Ci fib]
+22.3 +9.5 44 +24 +26 комфорт 1008.0 990.8
12 19.06 ЮЗ 3
{10}
50 км {гроза, ливн. осадки} 9/9 600 м
[Cb calv]
+18.1 +13.7 75 +18 +19 1008.8 991.4

 

Местоположение метеостанции Кунгур (Пермский край, Россия): широта 57.42 долгота 56.93 высота над уровнем моря 150 м.

В архиве по умолчанию представлена погода в Кунгуре за последнюю неделю. Архивные данные за месяц целиком и за предыдущие месяцы, начиная с января 2011 года, Вы можете получить, выбрав интересующий диапазон дат из раскрывающегося списка и нажав кнопку "Ввод!".


*Определитесь, кто Вы:
робот инопланетянин человек

Внимание! Время в таблицах - всемирное. Для получения местного времени необходимо прибавить поправку, которая равна 5 ч.

Смотрите также архив погоды в соседних городах и на ближайших метеорологических станциях:

Погода в Перми (Пермский край, Россия) (66 км)
Погода в Перми (Бахаревка) (Пермский край, Россия) (71 км)
Погода в Шамарах (Свердловская область, Россия) (78 км)
Погода в Перми (Гайва) (Пермский край, Россия) (84 км)
Погода в Осе (Пермский край, Россия) (92 км)
Погода в Лысьве (Пермский край, Россия) (93 км)
Погода в Оханске (Пермский край, Россия) (98 км)
Погода в Красноуфимске (Свердловская область, Россия) (100 км)
Погода в Октябрьском (Пермский край, Россия) (101 км)
Погода в Кыне (Пермский край, Россия) (112 км)

Пояснения к столбцам:

Ветер - указаны скорость ветра в м/с - средняя за 10 мин, порывы в срок и между сроками (в фигурных скобках) и направление, откуда дует ветер: С - северный, СВ - северо-восточный, В - восточный, ЮВ - юго-восточный, Ю - южный, ЮЗ - юго-западный, З - западный, СЗ - северо-западный.
Видимость - горизонтальная дальность видимости в метрах или километрах. При видимости от 1 до 10 км при отсутствии осадков обычно наблюдается дымка, при ухудшении видимости до 1 км и менее - туман. В сухую погоду видимость может ухудшаться дымом, пылью или мглою.
Явления - указаны атмосферные явления, наблюдавшиеся в срок или в последний час перед сроком; фигурными скобками обозначены явления, наблюдавшиеся между сроками (за 1-3 часа до срока); квадратными скобками обозначены град или гололедные отложения с указанием их диаметра в мм.
Облачность - указаны через наклонную черту общая и нижняя облачность в баллах и высота нижней границы облаков в метрах; квадратными скобками обозначены формы облаков: Ci - перистые, Cs - перисто-слоистые, Cc - перисто-кучевые, Ac - высококучевые, As - высокослоистые, Sc - слоисто-кучевые, Ns - слоисто-дождевые, Cu - кучевые, Cb - кучево-дождевые. Подробнее классификацию облаков см. в Атласе облаков (PDF).
T - Температура воздуха - температура, измеренная на высоте 2 м над землей.
Td - Температура точки росы - температура, при понижении до которой содержащийся в воздухе водяной пар достигнет насыщения.
f - Относительная влажность воздуха - влажноcть воздуха, измеренная на высоте 2 м над землей.
Te - Эффективная температура - температура, которую ощущает одетый по сезону человек в тени. Характеристика душности погоды. При расчете учитывается влияние влажности воздуха и скорости ветра на теплоощущения человека.
Tes - Эффективная температура на солнце - температура, которую ощущает человек, с поправкой на солнечный нагрев. Характеристика знойности погоды. Зависит от высоты солнца над горизонтом, облачности и скорости ветра. Ночью, в пасмурную погоду, а также при ветре 12 м/с и более поправка равна нулю.
P - Атмосферное давление - приведенное к уровню моря атмосферное давление.
Po - Атмосферное давление - измеренное на уровне метеостанции атмосферное давление.
Tmin - Минимальная температура - минимум температуры воздуха на высоте 2 м над землей.
Tmax - Максимальная температура - максимум температуры воздуха на высоте 2 м над землей.
R - Количество осадков - Количество выпавших осадков за период времени, мм. При наведении курсора мыши на число - период времени, за который выпало указанное количество осадков.
R24 - Количество осадков - Количество выпавших осадков за 24 часа, мм.
S - Снежный покров - Высота снежного покрова, см. При наведении курсора мыши на число - состояние снежного покрова и степень покрытия местности в баллах.